Simultaneous Nadir Overpasses (SNOs) Predictions

Prediction of SNOs between GOES-16 and METOP-B Satellite Orbit:

Table of predicted SNOs for the next 14.0 days since TLE Epoch: 2/4/2023
Index Date Time (GOES-16) GOES-16 Lat,Lon METOP-B Lat,Lon Distance(km) Time Diff (sec)
1 02/05/2023 02:35:58 -0.01, -75.18 -0.21, -76.05 98.51 80
2 02/06/2023 02:12:39 -0.01, -75.19 0.91, -71.06 470.79 80
3 02/07/2023 14:34:12 0.02, -75.22 0.13, -75.62 46.07 80
4 02/10/2023 02:29:55 -0.03, -75.23 0.00, -75.24 3.34 80
5 02/12/2023 14:28:09 0.02, -75.28 -0.09, -74.81 53.46 80
6 02/14/2023 02:49:51 -0.02, -75.28 -0.94, -79.41 470.26 80
7 02/15/2023 02:26:32 -0.02, -75.29 0.19, -74.42 99.79 80
8 02/16/2023 14:45:24 0.03, -75.33 0.85, -78.98 416.58 80
9 02/17/2023 14:27:26 0.02, -75.34 -0.29, -73.99 153.77 80
